St. Joseph, KS

3:05 AM CDT on March 30, 2017 (GMT -0500)
Rosecrans Memorial

Weather History for KSTJ - March, 2014

Change the Weather History Date:

Wednesday, March 26, 2014

  Actual Average Record
Temperature  
Mean Temperature 40 °F 47 °F  
Max Temperature 60 °F 59 °F 89 °F (1991)
Min Temperature 20 °F 35 °F 7 °F (1955)
Degree Days  
Heating Degree Days 25 18  
Month to date heating degree days 756 601  
Since 1 July heating degree days 5696 4909  
Cooling Degree Days 0 0  
Month to date cooling degree days 0 0  
Year to date cooling degree days 0 0  
Moisture  
Dew Point 24 °F    
Average Humidity 58    
Maximum Humidity 89    
Minimum Humidity 27    
Precipitation  
Precipitation 0.04 in 0.08 in 1.81 in (1983)
Month to date precipitation 0.37 1.78  
Year to date precipitation 1.19 3.27  
Sea Level Pressure  
Sea Level Pressure 29.98 in    
Wind  
Wind Speed 19 mph (South)    
Max Wind Speed 40 mph    
Max Gust Speed 48 mph    
Visibility 9 miles    
Events Rain    
T = Trace of Precipitation, MM = Missing Value Source: NWS Daily Summary

Daily Weather History Graph

Daily Weather History Graph

Search for Another Location

Airport or City:

Trip Planner

Search our weather history database for the weather conditions in past years. The results will help you decide how hot, cold, wet, or windy it might be!

Date:

Astronomy

Mar. 26, 2014 Rise Set
Actual Time 7:13 AM CDT 7:37 PM CDT
Civil Twilight 6:46 AM CDT 8:04 PM CDT
Nautical Twilight 6:14 AM CDT 8:36 PM CDT
Astronomical Twilight 5:42 AM CDT 9:09 PM CDT
Moon 4:22 AM CDT (3/26) 3:17 PM CDT (3/26)
Length of Visible Light 13h 18m
Length of Day
12h 24m
Waning Crescent, 21% of the Moon is Illuminated
Mar 26
Waning Crescent
Mar 30
New
Apr 7
First Quarter
Apr 15
Full
Apr 22
Last Quarter

Hourly Weather History & Observations

Time (CDT) Temp. Windchill Dew Point Humidity Pressure Visibility Wind Dir Wind Speed Gust Speed Precip Events Conditions
12:53 AM 21.0 °F - 12.0 °F 68% 30.24 in 10.0 mi Calm Calm - N/A   Clear
1:53 AM 21.0 °F - 12.0 °F 68% 30.23 in 10.0 mi Calm Calm - N/A   Clear
2:53 AM 24.1 °F 18.2 °F 12.9 °F 62% 30.22 in 10.0 mi South 4.6 mph - N/A   Clear
3:53 AM 26.1 °F 17.6 °F 12.0 °F 55% 30.20 in 10.0 mi South 8.1 mph - N/A   Clear
4:53 AM 26.1 °F 18.4 °F 12.0 °F 55% 30.17 in 10.0 mi South 6.9 mph - N/A   Clear
5:53 AM 28.0 °F 19.3 °F 12.9 °F 53% 30.15 in 10.0 mi South 9.2 mph - N/A   Clear
6:53 AM 28.9 °F 19.8 °F 12.0 °F 49% 30.14 in 10.0 mi South 10.4 mph - N/A   Clear
7:53 AM 30.9 °F 21.2 °F 12.9 °F 47% 30.14 in 10.0 mi SSE 12.7 mph - N/A   Clear
8:53 AM 34.0 °F 25.0 °F 14.0 °F 44% 30.12 in 10.0 mi SSE 12.7 mph - N/A   Clear
9:53 AM 41.0 °F 32.5 °F 16.0 °F 36% 30.10 in 10.0 mi SSE 17.3 mph - N/A   Clear
10:53 AM 44.1 °F 35.9 °F 17.1 °F 34% 30.06 in 10.0 mi South 19.6 mph 28.8 mph N/A   Scattered Clouds
11:53 AM 51.1 °F - 21.0 °F 31% 30.00 in 10.0 mi South 20.7 mph 34.5 mph N/A   Scattered Clouds
12:53 PM 55.0 °F - 23.0 °F 29% 29.94 in 10.0 mi South 26.5 mph 36.8 mph N/A   Clear
1:53 PM 57.0 °F - 24.1 °F 28% 29.91 in 10.0 mi South 28.8 mph 39.1 mph N/A   Clear
2:53 PM 57.9 °F - 25.0 °F 28% 29.86 in 10.0 mi South 31.1 mph 41.4 mph N/A   Scattered Clouds
3:53 PM 57.9 °F - 27.0 °F 31% 29.84 in 10.0 mi South 25.3 mph 41.4 mph N/A   Mostly Cloudy
4:53 PM 57.0 °F - 30.0 °F 36% 29.82 in 10.0 mi SSW 25.3 mph 35.7 mph N/A   Overcast
5:53 PM 51.1 °F - 34.0 °F 52% 29.83 in 10.0 mi SW 27.6 mph 36.8 mph N/A   Overcast
6:53 PM 45.0 °F 34.0 °F 39.0 °F 80% 29.81 in 8.0 mi South 39.1 mph 47.2 mph 0.00 in Rain Light Rain
7:53 PM 43.0 °F 33.1 °F 39.0 °F 86% 29.82 in 9.0 mi South 26.5 mph 35.7 mph 0.03 in Rain Light Rain
8:53 PM 43.0 °F 33.3 °F 39.0 °F 86% 29.80 in 9.0 mi South 25.3 mph 33.4 mph 0.01 in Rain Light Rain
9:53 PM 43.0 °F 33.3 °F 37.9 °F 82% 29.79 in 9.0 mi South 25.3 mph 35.7 mph 0.00 in   Overcast
10:53 PM 43.0 °F 34.2 °F 39.0 °F 86% 29.76 in 8.0 mi South 20.7 mph - 0.00 in   Overcast
11:40 PM 42.1 °F 33.6 °F 39.0 °F 89% 29.74 in 5.0 mi South 18.4 mph - 0.00 in Rain Light Rain
11:53 PM 42.1 °F 34.2 °F 39.9 °F 92% 29.74 in 4.0 mi South 16.1 mph 28.8 mph 0.00 in Rain Light Rain